Amarillo, TX

7:42 PM CDT on April 27, 2017 (GMT -0500)
Amarillo International

Weather History for KAMA - November, 2013

Change the Weather History Date:

Saturday, November 9, 2013

  Actual Average Record
Temperature  
Mean Temperature 49 °F 49 °F  
Max Temperature 64 °F 63 °F 84 °F (1934)
Min Temperature 33 °F 35 °F 16 °F (2000)
Degree Days  
Heating Degree Days 16 16  
Month to date heating degree days 129 127  
Since 1 July heating degree days 373 407  
Cooling Degree Days 0 0  
Month to date cooling degree days 0 0  
Year to date cooling degree days 1806 1398  
Moisture  
Dew Point 37 °F    
Average Humidity 66    
Maximum Humidity 93    
Minimum Humidity 39    
Precipitation  
Precipitation 0.00 in 0.03 in 1.39 in (1905)
Month to date precipitation 0.00 0.31  
Year to date precipitation 14.37 19.16  
Snow  
Snow 0.00 in 0.10 in 1.60 in (1997)
Month to date snowfall 0.0 0.5  
Since 1 July snowfall 0.0 0.7  
Since 1 September snowfall 0.0 0.7  
Snow Depth 0.00 in    
Sea Level Pressure  
Sea Level Pressure 30.04 in    
Wind  
Wind Speed 10 mph (North)    
Max Wind Speed 18 mph    
Max Gust Speed 25 mph    
Visibility 10 miles    
Events      
T = Trace of Precipitation, MM = Missing Value Source: NWS Daily Summary

Daily Weather History Graph

Daily Weather History Graph

Search for Another Location

Airport or City:

Trip Planner

Search our weather history database for the weather conditions in past years. The results will help you decide how hot, cold, wet, or windy it might be!

Date:

Astronomy

Nov. 09, 2013 Rise Set
Actual Time 7:16 AM CST 5:44 PM CST
Civil Twilight 6:49 AM CST 6:11 PM CST
Nautical Twilight 6:19 AM CST 6:41 PM CST
Astronomical Twilight 5:49 AM CST 7:11 PM CST
Moon 12:56 PM CST (11/9) No Moon Set
Length of Visible Light 11h 22m
Length of Day
10h 28m
Waxing Crescent, 44% of the Moon is Illuminated
Nov 9
Waxing Crescent
Nov 9
First Quarter
Nov 17
Full
Nov 25
Last Quarter
Dec 2
New

Hourly Weather History & Observations

Time (CST) Temp. Windchill Dew Point Humidity Pressure Visibility Wind Dir Wind Speed Gust Speed Precip Events Conditions
12:53 AM 46.0 °F 39.6 °F 42.1 °F 86% 29.87 in 10.0 mi SSW 15.0 mph - N/A   Clear
1:53 AM 44.1 °F 36.8 °F 41.0 °F 89% 29.88 in 10.0 mi SSW 16.1 mph - N/A   Clear
2:53 AM 41.0 °F 34.3 °F 39.0 °F 93% 29.88 in 10.0 mi SSW 11.5 mph - N/A   Clear
3:53 AM 39.0 °F 32.3 °F 37.0 °F 93% 29.89 in 10.0 mi South 10.4 mph - N/A   Clear
4:53 AM 36.0 °F 29.0 °F 34.0 °F 93% 29.90 in 10.0 mi SSW 9.2 mph - N/A   Clear
5:53 AM 35.1 °F 28.6 °F 34.0 °F 96% 29.93 in 8.0 mi SW 8.1 mph - N/A   Clear
6:53 AM 39.9 °F 32.5 °F 34.0 °F 79% 29.95 in 10.0 mi WNW 12.7 mph - N/A   Clear
7:53 AM 39.9 °F 32.9 °F 33.1 °F 77% 29.98 in 10.0 mi NW 11.5 mph - N/A   Clear
8:53 AM 44.1 °F 37.1 °F 34.0 °F 68% 30.01 in 10.0 mi NNW 15.0 mph - N/A   Clear
9:53 AM 46.9 °F - 34.0 °F 61% 30.03 in 10.0 mi NNW 15.0 mph - N/A   Clear
10:53 AM 51.1 °F - 35.1 °F 54% 30.04 in 10.0 mi North 17.3 mph - N/A   Clear
11:53 AM 55.9 °F - 36.0 °F 47% 30.04 in 10.0 mi North 13.8 mph 20.7 mph N/A   Clear
12:53 PM 61.0 °F - 37.9 °F 42% 30.02 in 10.0 mi North 15.0 mph 18.4 mph N/A   Clear
1:53 PM 63.0 °F - 37.9 °F 40% 30.01 in 10.0 mi NNE 15.0 mph 20.7 mph N/A   Clear
2:53 PM 63.0 °F - 39.0 °F 41% 30.04 in 10.0 mi NE 12.7 mph - N/A   Clear
3:53 PM 62.1 °F - 39.0 °F 43% 30.06 in 10.0 mi NNE 10.4 mph - N/A   Clear
4:53 PM 60.1 °F - 37.9 °F 44% 30.08 in 10.0 mi NE 9.2 mph - N/A   Clear
5:53 PM 53.1 °F - 37.9 °F 57% 30.12 in 10.0 mi NNE 8.1 mph - N/A   Clear
6:53 PM 51.1 °F - 37.9 °F 61% 30.14 in 10.0 mi NE 4.6 mph - N/A   Clear
7:53 PM 46.9 °F - 37.0 °F 68% 30.18 in 10.0 mi ENE 5.8 mph - N/A   Clear
8:53 PM 46.9 °F - 37.0 °F 68% 30.19 in 10.0 mi ESE 6.9 mph - N/A   Clear
9:53 PM 44.1 °F - 37.0 °F 76% 30.20 in 10.0 mi Calm Calm - N/A   Clear
10:53 PM 43.0 °F - 36.0 °F 76% 30.21 in 10.0 mi Calm Calm - N/A   Clear
11:53 PM 42.1 °F - 36.0 °F 79% 30.21 in 10.0 mi Calm Calm - N/A   Clear